EHI
0 0 0 0 0 0 0 0 0 0 0 0 0 0 0 0 0 0 0 0 0 0 0 0 0 0 0 0 0 0 0 0 0 0 0 0 0 0 0 0 0 0 0
0 0 0 0 0 0 0 0 0 0 0 0 0 0 0 0 0 0 0 0 0 0 0 0 0 0 0 0 0 0 0 0 0 0 0 0 0 0 0 0 0 0 0
0 0 0 0 0 0 0 0 0 0 0 0 0 0 0 0 0 0 0 0 0 0 0 0 0 0 0 0 0 0 0 0 0 0 0 0 0 0 0 0 0 0 0
0 0 0 0 0 0 0 0 0 0 0 0 0 0 0 0 0 0 0 0 0 0 0 0 0 0 0 0 0 0 0 0 0 0 0 0 0 0 0 0 0 0 0
0 0 0 0 0 0 0 0 0 0 0 0 0 0 0 0 0 0 0 0 0 0 0 0 0 0 0 0 0 0 0 0 0 0 0 0 0 0 0 0 0 0 0
0 0 0 0 0 0 0 0 0 0 0 0 0 0 0 0 0 0 0 0 0 0 0 0 0 0 0 0 0 0 0 0 0 0 0 0 0 0 0 0 0 0 0
0 0 0 0 0 0 0 0 0 0 0 0 0 0 0 0 0 0 0 0 0 0 0 0 0 0 0 0 0 0 0 0 0 0 0 0 0 0 0 0 0 0 0
0 0 0 0 0 0 0 0 0 0 0 0 0 0 0 0 0 0 0 0 0 0 0 0 0 0 0 0 0 0 0 0 0 0 0 0 0 0 0 0 0 0 0
0 0 0 0 0 0 0 0 0 0 0 0 0 0 0 0 0 0 0 0 0 0 0 0 0 0 0 0 0 0 0 0 0 0 0 0 0 0 0 0 0 0 0
0 0 0 0 0 0 0 0 0 0 0 0 0 0 0 0 0 0 0 0 0 0 0 0 0 0 0 0 0 0 0 0 0 0 0 0 0 0 0 0 0 0 0
0 0 0 0 0 0 0 0 0 0 0 0 0 0 0 0 0 0 0 0 0 0 0 0 0 0 0 0 0 0 0 0 0 0 0 0 0 0 0 0 0 0 0
0 0 0 0 0 0 0 0 0 0 0 0 0 0 0 0 0 0 0 0 0 0 0 0 0 0 0 0 0 0 0 0 0 0 0 0 0 0 0 0 0 0 0
0 0 0 0 0 0 0 0 0 0 0 0 0 0 0 0 0 0 0 0 0 0 0 0 0 0 0 0 0 0 0 0 0 0 0 0 0 0 0 0 0 0 0
0 0 0 0 0 0 0 0 0 0 0 0 0 0 0 0 0 0 0 0 0 0 0 0 0 0 0 0 0 0 0 0 0 0 0 0 0 0 0 0 0 0 0
0 0 0 0 0 0 0 0 0 0 0 0 0 0 0 0 0 0 0 0 0 0 0 0 0 0 0 0 0 0 0 0 0 0 0 0 0 0 0 0 0 0 0
0 0 0 0 0 0 0 0 0 0 0 0 0 0 0 0 0 0 0 0 0 0 0 0 0 0 0 0 0 0 0 0 0 0 0 0 0 0 0 0 0 0 0
0 0 0 0 0 0 0 0 0 0 0 0 0 0 0 0 0 0 0 0 0 0 0 0 0 0 0 0 0 0 0 0 0 0 0 0 0 0 0 0 0 0 0
0 0 0 0 0 0 0 0 0 0 0 0 0 0 0 0 0 0 0 0 0 0 0 0 0 0 0 0 0 0 0 0 0 0 0 0 0 0 0 0 0 0 0
0 0 0 0 0 0 0 0 0 0 0 0 0 0 0 0 0 0 0 0 0 0 0 0 0 0 0 0 0 0 0 0 0 0 0 0 0 0 0 0 0 0 0
0 0 0 0 0 0 0 0 0 0 0 0 0 0 0 0 0 0 0 0 0 0 0 0 0 0 0 0 0 0 0 0 0 0 0 0 0 0 0 0 0 0 0
0 0 0 0 0 0 0 0 0 0 0 0 0 0 0 0 0 0 0 0 0 0 0 0 0 0 0 0 0 0 0 0 0 0 0 0 0 0 0 0 0 0 0
0 0 0 0 0 0 0 0 0 0 0 0 0 0 0 0 0 0 0 0 0 0 0 0 0 0 0 0 0 0 0 0 0 0 0 0 0 0 0 0 0 0 0
0 0 0 0 0 0 0 0 0 0 0 0 0 0 0 0 0 0 0 0 0 0 0 0 0 0 0 0 0 0 0 0 0 0 0 0 0 0 0 0 0 0 0
0 0 0 0 0 0 0 0 0 0 0 0 0 0 0 0 0 0 0 0 0 0 0 0 0 0 0 0 0 0 0 0 0 0 0 0 0 0 0 0 0 0 0
0 0 0 0 0 0 0 0 0 0 0 0 0 0 0 0 0 0 0 0 0 0 0 0 0 0 0 0 0 0 0 0 0 0 0 0 0 0 0 0 0 0 0
0 0 0 0 0 0 0 0 0 0 0 0 0 0 0 0 0 0 0 0 0 0 0 0 0 0 0 0 0 0 0 0 0 0 0 0 0 0 0 0 0 0 0
Wind_Speed
6 5 4 3 4 3 3 3 3 2 2 2 3 4 4 4 3 2 2 5 5 5 6 6 6 7 7 7 7 7 8 8 9 9 10 10 10 11 11 12 12 12 12
7 6 5 4 4 4 4 4 4 3 2 2 3 4 4 4 3 3 2 2 4 4 5 5 5 5 5 5 6 6 7 7 8 8 9 9 10 10 11 11 12 12 13
9 7 6 5 5 4 4 3 3 3 3 3 3 3 3 3 3 3 2 1 1 3 3 3 3 3 3 4 4 5 6 6 7 8 9 9 10 10 11 11 12 12 12
10 8 6 6 5 4 4 4 3 3 3 3 2 2 2 2 3 3 2 2 1 1 1 2 2 1 2 2 3 3 4 5 6 7 8 9 10 10 11 12 12 13 13
11 8 7 6 6 5 4 5 3 3 3 3 2 2 1 2 2 3 3 3 2 2 1 1 1 1 1 1 2 3 4 5 6 7 8 9 10 11 12 12 13 13 14
11 9 7 7 7 5 4 4 4 3 3 3 3 2 1 0 1 2 3 3 3 3 2 1 0 1 2 3 3 4 5 6 7 8 8 10 11 12 13 13 14 14 15
11 10 7 7 7 7 7 6 4 4 2 3 3 2 2 2 1 2 2 2 3 3 3 3 2 1 2 4 4 5 6 7 8 8 9 10 11 12 13 14 14 15 16
12 10 10 8 8 6 7 7 5 4 2 3 4 2 1 3 2 1 2 3 3 2 3 4 3 3 2 1 4 6 7 8 9 9 10 11 12 13 14 15 16 16 16
13 11 11 10 9 8 8 8 7 7 5 3 3 5 4 4 2 2 2 2 3 3 3 3 4 4 4 3 3 5 7 8 9 10 11 12 13 14 15 15 16 17 17
13 12 12 11 10 8 8 8 7 5 7 5 2 2 2 4 3 1 2 2 3 3 4 3 3 3 3 3 4 6 7 8 9 11 12 13 14 15 16 16 17 18 18
12 12 12 11 11 9 9 9 8 7 6 6 4 3 2 1 2 3 3 2 2 3 3 3 3 3 3 3 3 5 7 8 10 11 12 13 14 16 17 17 18 18 19
9 12 12 12 11 9 10 9 9 9 7 6 5 4 4 4 4 3 3 3 3 3 2 2 2 2 2 2 4 6 7 8 10 11 12 13 15 16 17 18 18 19 19
9 14 13 12 11 10 10 9 9 9 9 8 7 5 4 3 3 4 3 2 2 2 2 2 2 2 2 2 3 6 7 9 10 11 12 13 14 16 17 18 18 19 20
11 12 13 12 11 11 10 10 8 8 8 8 8 6 4 4 3 4 4 3 1 2 2 4 2 2 2 2 4 4 4 9 10 11 12 13 14 15 16 17 18 19 19
9 11 12 11 11 11 11 10 8 9 8 8 7 7 5 4 3 3 3 4 4 3 4 4 2 2 2 2 3 2 3 8 10 11 12 13 14 15 16 17 17 18 19
10 11 12 12 11 11 11 10 7 7 8 7 6 7 6 4 3 3 3 3 3 4 4 3 3 2 1 1 3 2 3 8 9 12 13 14 14 15 16 16 17 18 18
12 12 13 12 12 11 11 10 9 9 10 8 7 8 7 5 4 3 3 3 3 3 4 3 1 1 1 2 2 2 2 3 4 11 13 14 14 15 15 16 17 17 18
12 12 11 12 12 11 11 12 11 10 11 10 9 8 7 5 5 4 4 4 3 3 3 4 2 1 2 2 2 2 3 3 4 10 12 14 14 14 15 16 16 16 17
12 12 12 12 12 12 11 11 11 10 10 9 9 9 8 7 6 4 4 4 3 2 2 2 2 1 1 1 1 3 3 3 4 7 10 12 13 14 15 15 15 16 16
12 12 12 12 11 11 11 10 10 9 9 8 8 8 8 9 8 7 5 5 3 3 2 1 2 1 1 1 1 2 3 3 4 4 6 9 11 13 14 15 15 16 16
12 12 11 10 10 10 10 11 10 9 9 8 7 7 7 8 9 7 5 5 5 3 2 2 2 1 1 1 2 1 3 3 4 2 4 5 5 5 6 11 13 15 15
11 11 12 11 11 9 13 15 12 9 9 9 8 6 6 7 7 8 8 7 7 5 4 3 2 2 3 2 1 1 2 3 4 2 2 5 3 4 5 4 11 15 15
11 11 11 11 11 11 16 17 15 10 9 8 8 7 5 5 7 5 6 6 6 6 5 4 4 4 3 3 2 1 2 2 4 3 2 4 3 4 5 7 14 14 15
11 11 11 11 10 11 16 17 16 10 8 8 8 8 7 6 6 7 5 4 3 2 3 3 3 3 2 2 2 2 2 2 3 3 1 3 3 4 6 5 10 13 14
9 9 10 11 10 11 16 17 16 8 6 6 6 6 7 6 9 10 7 5 3 1 1 2 2 1 1 0 1 1 1 2 3 3 1 2 3 5 5 4 6 12 15
9 9 9 9 10 10 15 18 17 7 7 6 5 5 8 8 10 11 7 6 5 3 2 2 2 2 2 2 2 1 1 0 2 3 2 2 2 4 5 3 3 5 7
Wind_Direction
159 155 153 152 154 148 150 149 149 148 141 132 127 125 128 130 129 114 89 100 100 99 99 92 84 79 72 67 59 52 45 40 35 29 23 19 15 12 8 5 2 358 355
163 162 161 162 168 166 162 158 162 158 153 134 124 126 133 138 135 130 108 100 108 110 107 98 87 78 72 68 59 48 39 34 28 22 16 11 7 4 1 357 355 353 351
167 166 166 170 177 169 159 149 152 142 132 120 120 128 133 142 145 146 136 108 87 99 114 108 98 82 69 64 55 42 31 23 17 12 8 4 360 355 353 350 348 345 343
170 167 169 176 175 162 155 152 149 138 129 127 128 134 134 137 151 158 150 147 132 102 122 143 137 94 60 47 38 27 17 9 4 1 357 354 351 347 344 342 341 338 336
173 170 172 175 168 161 160 162 151 144 140 140 138 129 135 145 161 162 167 175 177 170 175 180 167 205 293 332 342 351 352 350 347 347 346 344 342 340 337 337 335 333 330
176 171 170 172 166 161 163 160 151 142 142 145 121 89 45 171 169 177 184 184 190 190 187 185 195 266 254 272 300 316 324 329 332 333 335 335 335 334 332 331 329 327 326
177 174 173 171 171 171 171 161 147 144 138 129 99 48 353 343 257 216 195 189 203 203 194 196 200 220 264 264 281 291 305 314 319 323 326 327 328 329 327 326 324 324 324
180 180 176 176 174 168 168 167 151 144 154 156 135 121 341 323 306 255 220 212 215 207 211 211 205 210 223 240 268 277 291 302 309 315 319 322 323 323 324 324 323 322 322
183 182 181 177 177 176 179 179 168 158 165 187 162 150 161 216 262 298 251 229 220 217 225 220 217 218 217 220 247 268 278 292 302 309 314 317 318 319 320 321 321 321 320
185 184 181 181 181 182 180 183 178 166 159 176 191 181 165 156 161 252 296 269 239 230 227 227 224 223 219 219 237 252 269 283 296 305 311 314 316 317 318 319 319 319 318
188 186 184 184 185 186 185 183 179 177 173 172 172 162 154 133 145 163 241 279 285 254 232 226 224 226 224 220 232 254 269 283 294 302 309 312 314 315 317 317 317 317 316
190 191 188 189 189 188 188 186 185 184 187 180 177 170 165 166 181 173 203 232 250 270 254 235 225 223 223 223 242 259 271 283 292 300 306 309 312 314 314 315 315 315 315
192 195 192 192 191 191 188 183 185 190 188 187 189 190 185 182 161 161 169 203 237 276 291 264 232 220 227 221 248 266 272 283 291 297 303 308 310 311 312 313 314 315 315
197 190 193 194 192 187 187 186 188 191 190 193 194 188 185 189 170 166 165 157 198 288 287 267 272 230 232 224 252 261 273 283 291 298 304 308 309 310 311 313 314 315 316
188 186 189 190 189 188 188 185 193 192 187 193 191 189 189 189 181 177 163 160 164 215 259 257 259 264 247 236 263 254 263 283 293 300 304 306 309 310 313 313 313 314 315
184 183 187 189 188 188 187 187 187 184 185 190 184 185 193 185 180 177 175 174 171 180 230 251 240 267 269 280 278 268 264 291 296 302 304 307 310 312 313 313 313 314 314
186 186 188 189 189 189 186 188 190 183 190 190 184 187 193 180 177 181 174 173 179 170 217 263 255 271 263 273 299 296 289 284 298 303 305 309 313 315 315 315 315 315 317
188 187 184 187 190 189 188 190 192 189 190 191 189 186 189 178 183 180 179 189 190 183 191 240 263 266 256 270 288 298 306 303 293 299 306 311 314 314 316 317 317 318 319
184 183 182 187 189 189 189 192 192 190 191 190 186 186 186 179 190 187 187 193 189 176 176 201 245 253 272 303 307 300 303 298 303 302 308 313 313 316 319 320 321 321 321
181 183 185 186 186 184 186 187 186 185 185 185 184 186 186 188 195 191 190 192 173 168 170 194 239 261 270 293 300 291 305 304 304 304 310 314 314 318 320 322 322 322 323
181 180 178 180 180 181 185 182 181 180 179 178 179 184 188 188 190 184 180 177 168 171 176 198 230 265 269 286 275 270 291 307 296 289 311 309 310 309 316 320 321 320 323
175 174 177 178 179 183 178 176 176 176 176 176 178 180 178 179 180 181 180 174 172 174 185 187 210 234 251 247 243 280 293 324 303 295 305 297 298 297 302 298 312 321 325
172 174 177 177 179 179 172 173 173 171 173 176 176 172 168 174 170 172 175 170 181 189 182 179 201 223 228 223 210 244 253 263 266 283 308 285 291 294 301 308 317 322 328
172 174 175 175 173 173 168 168 166 167 166 170 172 172 171 168 169 159 151 153 161 182 192 188 199 218 216 207 196 210 237 278 285 288 284 275 291 297 306 299 308 323 333
166 169 169 169 169 168 166 164 159 161 158 162 162 163 162 163 162 152 149 155 155 166 126 129 117 96 64 41 97 82 24 351 313 299 312 291 296 307 297 286 301 320 329
161 159 160 166 166 166 166 162 157 156 154 153 146 154 162 161 162 160 161 163 174 184 142 110 75 56 51 42 55 98 169 272 304 292 297 308 299 326 311 290 290 303 314